OK2ARM-12 Weather Reports


Display with metric or nautical units.
time (UTC)temp
F
wind
direction
speed
MPH
gust
MPH
rain 1hr
in
rain 24hr
in
rain mn
in
humidity
%
barometer
mb
20260903165536 66 0.0 0.0 0.00 0.00 0.00 46 1020.0
20260903164535 67 0.0 0.0 0.00 0.00 0.00 46 1019.9
20260903163535 67 0.0 0.0 0.00 0.00 0.00 46 1019.9
20260903162535 67 0.0 0.0 0.00 0.00 0.00 45 1019.8
20260903160311 68 0.0 0.0 0.00 0.00 0.00 44 1019.8
20260903155311 68 0.0 0.0 0.00 0.00 0.00 43 1020.0
20260903154311 68 0.0 0.0 0.00 0.00 0.00 42 1020.1
20260903153311 68 0.0 0.0 0.00 0.00 0.00 42 1020.0
20260903151047 69 0.0 0.0 0.00 0.00 0.00 41 1020.0
20260903150047 69 0.0 0.0 0.00 0.00 0.00 40 1020.0
20260903145047 69 0.0 0.0 0.00 0.00 0.00 39 1019.8
20260903144047 69 0.0 0.0 0.00 0.00 0.00 39 1019.7
20260903143049 69 0.0 0.0 0.00 0.00 0.00 38 1020.0
20260903142047 70 0.0 0.0 0.00 0.00 0.00 36 1019.9
20260903135823 73 0.0 0.0 0.00 0.00 0.00 42 1020.2
20260903134823 69 0.0 0.0 0.00 0.00 0.00 44 1020.1
20260903133823 69 0.0 0.0 0.00 0.00 0.00 44 1020.1
20260903132823 68 0.0 0.0 0.00 0.00 0.00 43 1020.1
20260903131823 69 0.0 0.0 0.00 0.00 0.00 44 1020.1
20260903130823 68 0.0 0.0 0.00 0.00 0.00 43 1020.1
20260903125823 68 0.0 0.0 0.00 0.00 0.00 42 1020.1
20260903124823 69 0.0 0.0 0.00 0.00 0.00 42 1020.1
20260903123823 69 0.0 0.0 0.00 0.00 0.00 44 1020.2
20260903122823 68 0.0 0.0 0.00 0.00 0.00 43 1020.2
20260903121559 69 0.0 0.0 0.00 0.00 0.00 44 1020.3
20260903120555 68 0.0 0.0 0.00 0.00 0.00 43 1020.4
20260903115555 69 0.0 0.0 0.00 0.00 0.00 42 1020.6
20260903114555 69 0.0 0.0 0.00 0.00 0.00 43 1020.8
20260903113555 68 0.0 0.0 0.00 0.00 0.00 44 1021.0
20260903112555 68 0.0 0.0 0.00 0.00 0.00 44 1021.1
20260903111555 70 0.0 0.0 0.00 0.00 0.00 44 1021.1
20260903105331 70 0.0 0.0 0.00 0.00 0.00 44 1021.0
20260903104332 69 0.0 0.0 0.00 0.00 0.00 46 1021.1
20260903103331 69 0.0 0.0 0.00 0.00 0.00 46 1021.1
20260903102332 68 0.0 0.0 0.00 0.00 0.00 45 1021.0
20260903101331 68 0.0 0.0 0.00 0.00 0.00 45 1021.1
20260903093845 69 0.0 0.0 0.00 0.00 0.00 49 1021.4
20260903092844 68 0.0 0.0 0.00 0.00 0.00 47 1021.4
20260903091844 66 0.0 0.0 0.00 0.00 0.00 50 1021.4
20260903090844 67 0.0 0.0 0.00 0.00 0.00 50 1021.6
20260903085844 67 0.0 0.0 0.00 0.00 0.00 52 1021.6
20260903084844 66 0.0 0.0 0.00 0.00 0.00 51 1021.6
20260903082621 65 0.0 0.0 0.00 0.00 0.00 55 1021.7
20260903080357 64 0.0 0.0 0.00 0.00 0.00 57 1021.7
20260903075357 64 0.0 0.0 0.00 0.00 0.00 60 1021.6
20260903074357 63 0.0 0.0 0.00 0.00 0.00 60 1021.5
20260903073357 63 0.0 0.0 0.00 0.00 0.00 63 1021.6
20260903072357 62 0.0 0.0 0.00 0.00 0.00 64 1021.6
20260903071357 62 0.0 0.0 0.00 0.00 0.00 64 1021.7
20260903070357 61 0.0 0.0 0.00 0.00 0.00 66 1021.6
20260903065357 61 0.0 0.0 0.00 0.00 0.00 67 1021.7
20260903061910 60 0.0 0.0 0.00 0.00 0.00 69 1021.5
20260903060910 59 0.0 0.0 0.00 0.00 0.00 68 1021.5
20260903055910 59 0.0 0.0 0.00 0.00 0.00 68 1021.6
20260903054909 59 0.0 0.0 0.00 0.00 0.00 67 1021.6
20260903052646 59 0.0 0.0 0.00 0.00 0.00 67 1021.4
20260903051646 59 0.0 0.0 0.00 0.00 0.00 67 1021.4
20260903050646 59 0.0 0.0 0.00 0.00 0.00 67 1021.3
20260903045647 59 0.0 0.0 0.00 0.00 0.00 67 1021.3
20260903043423 59 0.0 0.0 0.00 0.00 0.00 67 1021.3
20260903042422 59 0.0 0.0 0.00 0.00 0.00 66 1021.4
20260903041423 59 0.0 0.0 0.00 0.00 0.00 66 1021.2
20260903033936 59 0.0 0.0 0.00 0.00 0.00 68 1021.2
20260903031712 57 0.0 0.0 0.00 0.00 0.00 70 1021.3
20260903030712 58 0.0 0.0 0.00 0.00 0.00 69 1021.2
20260903024448 59 0.0 0.0 0.00 0.00 0.00 67 1021.2
20260903022224 58 0.0 0.0 0.00 0.00 0.00 68 1021.2
20260903021224 58 0.0 0.0 0.00 0.00 0.00 67 1021.4
20260903020224 59 0.0 0.0 0.00 0.00 0.00 67 1021.4
20260903015224 59 0.0 0.0 0.00 0.00 0.00 66 1021.3
20260903014224 59 0.0 0.0 0.00 0.00 0.00 66 1021.3
20260903013224 59 0.0 0.0 0.00 0.00 0.00 64 1021.3
20260903012224 60 0.0 0.0 0.00 0.00 0.00 64 1021.4
20260903011224 60 0.0 0.0 0.00 0.00 0.00 65 1021.3
20260903010224 59 0.0 0.0 0.00 0.00 0.00 64 1021.3
20260903005224 59 0.0 0.0 0.00 0.00 0.00 66 1021.3
20260903004224 59 0.0 0.0 0.00 0.00 0.00 65 1021.3
20260903003224 59 0.0 0.0 0.00 0.00 0.00 64 1021.3
20260903002224 59 0.0 0.0 0.00 0.00 0.00 63 1021.2
20260903001224 60 0.0 0.0 0.00 0.00 0.00 62 1021.3
20260903000226 59 0.0 0.0 0.00 0.00 0.00 62 1021.3
20260902235224 59 0.0 0.0 0.00 0.00 0.00 62 1021.3
20260902234224 60 0.0 0.0 0.00 0.00 0.00 60 1021.4
20260902232000 61 0.0 0.0 0.00 0.00 0.00 56 1021.5
20260902225737 62 0.0 0.0 0.00 0.00 0.00 54 1021.4
20260902224737 63 0.0 0.0 0.00 0.00 0.00 52 1021.4
20260902222514 63 0.0 0.0 0.00 0.00 0.00 52 1021.5
20260902221513 64 0.0 0.0 0.00 0.00 0.00 52 1021.5
20260902214026 64 0.0 0.0 0.00 0.00 0.00 55 1021.5
20260902213026 64 0.0 0.0 0.00 0.00 0.00 57 1021.5
20260902212027 64 0.0 0.0 0.00 0.00 0.00 56 1021.4
20260902205803 65 0.0 0.0 0.00 0.00 0.00 53 1021.3
20260902203539 65 0.0 0.0 0.00 0.00 0.00 55 1021.1
20260902202539 65 0.0 0.0 0.00 0.00 0.00 56 1021.1
20260902201539 64 0.0 0.0 0.00 0.00 0.00 56 1021.1
20260902200539 64 0.0 0.0 0.00 0.00 0.00 57 1021.1
20260902195539 64 0.0 0.0 0.00 0.00 0.00 57 1021.0
20260902193316 65 0.0 0.0 0.00 0.00 0.00 51 1021.0
20260902192316 65 0.0 0.0 0.00 0.00 0.00 45 1021.0
20260902190051 66 0.0 0.0 0.00 0.00 0.00 43 1021.0
20260902185051 66 0.0 0.0 0.00 0.00 0.00 43 1021.0
20260902184051 66 0.0 0.0 0.00 0.00 0.00 43 1021.1
20260902183051 66 0.0 0.0 0.00 0.00 0.00 43 1021.0
20260902182055 66 0.0 0.0 0.00 0.00 0.00 42 1020.9
20260902181051 66 0.0 0.0 0.00 0.00 0.00 42 1020.8
20260902180051 67 0.0 0.0 0.00 0.00 0.00 41 1020.8
20260902175051 67 0.0 0.0 0.00 0.00 0.00 41 1020.7
20260902174051 67 0.0 0.0 0.00 0.00 0.00 40 1020.7
20260902173051 67 0.0 0.0 0.00 0.00 0.00 40 1020.6
20260902172052 68 0.0 0.0 0.00 0.00 0.00 40 1020.6
20260902171051 68 0.0 0.0 0.00 0.00 0.00 38 1020.6
20260902170057 70 0.0 0.0 0.00 0.00 0.00 35 1020.5